Regional Weather Roundup
Issued by NWS

Home | Current Version | Previous Version | Text Only | Print | Product List | Glossary Off
Versions: 1 2 3 4 5 6 7 8 9 10 11 12 13 14 15 16 17 18 19 20 21 22 23 24 25 26 27 28 29 30 31 32 33 34 35 36 37 38 39 40 41 42 43 44 45 46 47 48 49 50

000
ASUS45 KABQ 301410
RWRNM
NEW MEXICO REGIONAL WEATHER ROUNDUP
NATIONAL WEATHER SERVICE ALBUQUERQUE NM
800 AM MDT SAT APR 30 2016

NOTE: "FAIR" MEANS FEW OR NO CLOUDS BELOW 12,000 FEET AGL WITH NO
       SIGNIFICANT WEATHER OR OBSTRUCTIONS TO VISION.

      THIS PRODUCT IS RELEASED AS TWO VERSIONS.  ONE VERSION NEAR
      THE TOP OF THE HOUR CONTAINING PRELIMINARY DATA FROM ALBUQUERQUE
      AND OTHER STATIONS.  A FINAL VERSION WITH ADDITIONAL DATA IS
      ISSUED ABOUT 10 MINUTES AFTER THE HOUR.

NMZ501-503-504-510>518-301500-
NORTHWEST PLATEAU/NORTHCENTRAL MOUNTAINS

CITY           SKY/WX    TMP DP  RH WIND       PRES   REMARKS
FARMINGTON     FAIR      39  31  72 CALM      29.87R
LOS ALAMOS     FAIR      42  31  65 N5        29.89R
SANTA FE       FAIR      43  36  76 W10       29.87R
TAOS           CLOUDY    36  28  75 S5        29.88R WCI  32
ANGEL FIRE     CLOUDY    33  28  79 W10       29.88R WCI  25

$$
NMZ402-403-502-505>509-301500-
WESTCENTRAL MOUNTAINS/SOUTHWEST MOUNTAINS

CITY           SKY/WX    TMP DP  RH WIND       PRES   REMARKS
GALLUP         FAIR      41  36  82 SW7       29.91R
GRANTS         FAIR      42  37  81 W7        29.93R
SILVER CITY      N/A     50  28  43 CALM      29.95R

$$
NMZ407-409-411-412-301500-
SOUTHERN DESERTS

CITY           SKY/WX    TMP DP  RH WIND       PRES   REMARKS
LORDSBURG      FAIR      48  28  46 SE7       29.91R
DEMING         FAIR      49  27  42 CALM      29.91R
LAS CRUCES     FAIR      52  29  41 W7        29.92R
HOLLOMAN AFB   FAIR      50  25  37 SE3       29.89R
ALAMOGORDO     FAIR      54  25  32 S7        29.90R
T OR C         FAIR      53  32  44 N8        29.90R

$$
NMZ519>523-301500-
CENTRAL VALLEYS/CENTRAL HIGHLANDS

CITY           SKY/WX    TMP DP  RH WIND       PRES   REMARKS
ALBUQUERQUE    FAIR      46  37  71 SE5       29.89R
DOUBLE EAGLE   MOSUNNY   45  37  76 SW3       29.90R
MORIARTY ARPT  FAIR      44  33  65 W17       29.90R
CLINES CORNERS FAIR      37  33  85 W21       29.85R WCI  26
BELEN          FAIR      48  38  67 W9        29.90R
SOCORRO        CLOUDY    50  36  59 S10       29.90R

$$
NMZ524>526-539-540-301500-
SOUTHCENTRAL MOUNTAINS

CITY           SKY/WX    TMP DP  RH WIND       PRES   REMARKS
RUIDOSO          N/A     45  28  53 CALM      29.93S

$$
NMZ527>531-301500-
NORTHEAST HIGHLANDS/NORTHEAST PLAINS

CITY           SKY/WX    TMP DP  RH WIND       PRES   REMARKS
LAS VEGAS      FOG       30  30 100 NE6       29.85R VSB<1/4 WCI  24
RATON          FAIR      36  27  69 CALM      29.84R
CLAYTON        FAIR      41  31  67 NW15      29.84R

$$
NMZ532>537-301500-
EASTCENTRAL PLAINS

CITY           SKY/WX    TMP DP  RH WIND       PRES   REMARKS
TUCUMCARI      PTSUNNY   43  38  82 S7        29.88R
CANNON AFB     NOT AVBL
CLOVIS AIRPORT FAIR      41  36  81 SE5       29.90R

$$
NMZ028-029-538-301500-
SOUTHEAST PLAINS

CITY           SKY/WX    TMP DP  RH WIND       PRES   REMARKS
ROSWELL        FAIR      57  34  41 S6        29.85R
ARTESIA        FAIR      52  30  43 S5        29.88R
CARLSBAD       FAIR      57  31  37 VRB3      29.87R
HOBBS          SUNNY     50  45  81 N5        29.90R


$$



USA.gov is the U.S. government's official web portal to all federal, state and local government web resources and services.